This demonstration page uses our WeatherBlox Daily Observations layout. Learn more.

Left ArrowRight Arrow

Hourly Observations for February 19, 2017

Temp ( °F °C ) Dew Point ( °F °C ) Humidity (%) Winds ( mph kmh ) Pressure ( in mb ) Visibility ( mi km ) Precip ( " mm )
12:53 am 00:53 Mostly Cloudy 34 1.1 31 -0.6 89 89 ENE 20 31 29.41 996 10 16 0.00 0.00
1:53 am 01:53 Clear 32 0 31 -0.6 96 96 ENE 16 26 29.41 996 10 16 0.00 0.00
2:53 am 02:53 Clear 32 0 30 -1.1 92 92 E 12 19 29.40 996 10 16 0.00 0.00
3:53 am 03:53 Clear 31 -0.6 30 -1.1 96 96 E 10 17 29.39 995 10 16 0.00 0.00
4:53 am 04:53 Clear 30 -1.1 30 -1.1 100 100 ENE 9 15 29.40 996 9 14 0.00 0.00
5:53 am 05:53 Clear 30 -1.1 29 -1.7 96 96 E 8 13 29.41 996 7 11 0.00 0.00
6:53 am 06:53 Clear with Mist and Fog 30 -1.1 29 -1.7 96 96 E 8 13 29.42 996 6 10 0.00 0.00
7:53 am 07:53 Mostly Cloudy with Mist and Fog 31 -0.6 30 -1.1 96 96 Calm 29.45 997 5 8 0.00 0.00
8:53 am 08:53 Cloudy with Light Wintry Mix 32 0 31 -0.6 96 96 W 3 6 29.47 998 4 6 0.00 0.03
9:53 am 09:53 Cloudy with Mist and Fog 33 0.6 31 -0.6 92 92 Calm 29.48 998 6 10 0.01 0.25
10:53 am 10:53 Cloudy with Light Rain 35 1.7 32 0 89 89 Calm 29.48 998 7 11 0.00 0.03
11:53 am 11:53 Mostly Cloudy 36 2.2 34 1.1 93 93 Calm 29.48 998 10 16 0.00 0.03
12:53 pm 12:53 Cloudy 40 4.4 35 1.7 83 83 W 6 9 29.49 999 10 16 0.00 0.00
1:53 pm 13:53 Cloudy 44 6.7 36 2.2 73 73 WSW 6 9 29.51 999 10 16 0.00 0.00
2:53 pm 14:53 Mostly Sunny 48 8.9 37 2.8 66 66 WNW 6 9 29.52 1000 10 16 0.00 0.00
3:53 pm 15:53 Mostly Cloudy 48 8.9 36 2.2 63 63 Calm 29.52 1000 10 16 0.00 0.00
4:53 pm 16:53 Mostly Sunny 44 6.7 36 2.2 73 73 Calm 29.55 1001 10 16 0.00 0.00
5:53 pm 17:53 Clear 42 5.6 35 1.7 76 76 Calm 29.58 1002 10 16 0.00 0.00
6:53 pm 18:53 Clear 35 1.7 30 -1.1 82 82 S 7 11 29.61 1003 10 16 0.00 0.00
7:53 pm 19:53 Clear 37 2.8 29 -1.7 73 73 Calm 29.62 1003 10 16 0.00 0.00
8:53 pm 20:53 Clear 31 -0.6 27 -2.8 85 85 Calm 29.64 1004 10 16 0.00 0.00
9:53 pm 21:53 Clear 30 -1.1 27 -2.8 88 88 NW 3 6 29.65 1004 10 16 0.00 0.00
10:53 pm 22:53 Clear 28 -2.2 26 -3.3 92 92 W 3 6 29.67 1005 10 16 0.00 0.00
11:53 pm 23:53 Mostly Cloudy 33 0.6 29 -1.7 85 85 SW 18 30 29.70 1006 10 16 0.00 0.00

Powered by AerisWeather